Time,TemperatureF,DewpointF,PressureIn,WindDirection,WindDirectionDegrees,WindSpeedMPH,WindSpeedGustMPH,Humidity,HourlyPrecipIn,Conditions,Clouds,dailyrainin,SoftwareType,DateUTC
2013-05-13 00:01:00,61.0,49.0,30.08,WNW,294,0.0,1.0,64,0.00,,,0.00,,2013-05-13 07:01:00,
2013-05-13 00:11:00,61.0,49.0,30.08,WNW,294,0.0,1.0,64,0.00,,,0.00,,2013-05-13 07:11:00,
2013-05-13 00:21:00,60.0,48.0,30.08,WNW,294,1.0,2.0,65,0.00,,,0.00,,2013-05-13 07:21:00,
2013-05-13 00:31:00,60.0,48.0,30.08,WNW,294,0.0,1.0,65,0.00,,,0.00,,2013-05-13 07:31:00,
2013-05-13 00:41:00,60.0,48.0,30.08,WNW,294,0.0,1.0,65,0.00,,,0.00,,2013-05-13 07:41:00,
2013-05-13 00:52:00,59.0,48.0,30.08,West,277,0.0,2.0,66,0.00,,,0.00,,2013-05-13 07:52:00,
2013-05-13 01:02:00,59.0,48.0,30.08,West,277,0.0,2.0,67,0.00,,,0.00,,2013-05-13 08:02:00,
2013-05-13 01:11:00,59.0,48.0,30.08,West,277,0.0,2.0,67,0.00,,,0.00,,2013-05-13 08:11:00,
2013-05-13 01:21:00,59.0,48.0,30.08,West,277,0.0,1.0,66,0.00,,,0.00,,2013-05-13 08:21:00,
2013-05-13 01:31:00,58.0,47.0,30.07,West,277,1.0,2.0,66,0.00,,,0.00,,2013-05-13 08:31:00,
2013-05-13 01:41:00,58.0,47.0,30.07,West,277,1.0,2.0,66,0.00,,,0.00,,2013-05-13 08:41:00,
2013-05-13 01:51:00,58.0,47.0,30.07,West,277,0.0,1.0,66,0.00,,,0.00,,2013-05-13 08:51:00,
2013-05-13 02:01:00,58.0,47.0,30.07,West,277,1.0,1.0,67,0.00,,,0.00,,2013-05-13 09:01:00,
2013-05-13 02:11:00,58.0,47.0,30.07,West,277,1.0,1.0,67,0.00,,,0.00,,2013-05-13 09:11:00,
2013-05-13 02:21:00,57.0,45.0,30.06,West,277,1.0,2.0,65,0.00,,,0.00,,2013-05-13 09:21:00,
2013-05-13 02:33:00,57.0,46.0,30.06,West,277,1.0,1.0,66,0.00,,,0.00,,2013-05-13 09:33:00,
2013-05-13 02:42:00,57.0,46.0,30.06,West,277,1.0,1.0,66,0.00,,,0.00,,2013-05-13 09:42:00,
2013-05-13 02:52:00,57.0,45.0,30.06,West,275,0.0,1.0,64,0.00,,,0.00,,2013-05-13 09:52:00,
2013-05-13 03:02:00,56.0,44.0,30.06,WSW,252,0.0,1.0,65,0.00,,,0.00,,2013-05-13 10:02:00,
2013-05-13 03:12:00,56.0,44.0,30.06,WSW,252,0.0,1.0,65,0.00,,,0.00,,2013-05-13 10:12:00,
2013-05-13 03:22:00,56.0,45.0,30.06,WSW,252,0.0,1.0,66,0.00,,,0.00,,2013-05-13 10:22:00,
2013-05-13 03:32:00,55.0,44.0,30.07,WSW,252,0.0,0.0,66,0.00,,,0.00,,2013-05-13 10:32:00,
2013-05-13 03:42:00,55.0,44.0,30.07,WSW,252,0.0,0.0,66,0.00,,,0.00,,2013-05-13 10:42:00,
2013-05-13 03:52:00,55.0,44.0,30.07,West,272,1.0,4.0,67,0.00,,,0.00,,2013-05-13 10:52:00,
2013-05-13 04:02:00,55.0,45.0,30.06,West,281,1.0,2.0,68,0.00,,,0.00,,2013-05-13 11:02:00,
2013-05-13 04:12:00,55.0,45.0,30.06,West,281,1.0,2.0,68,0.00,,,0.00,,2013-05-13 11:12:00,
2013-05-13 04:21:00,54.0,44.0,30.06,NNW,334,1.0,2.0,69,0.00,,,0.00,,2013-05-13 11:21:00,
2013-05-13 04:32:00,54.0,45.0,30.07,NNW,334,1.0,2.0,71,0.00,,,0.00,,2013-05-13 11:32:00,
2013-05-13 04:41:00,54.0,45.0,30.07,NNW,334,1.0,2.0,71,0.00,,,0.00,,2013-05-13 11:41:00,
2013-05-13 04:51:00,54.0,46.0,30.07,NNW,334,1.0,2.0,73,0.00,,,0.00,,2013-05-13 11:51:00,
2013-05-13 05:01:00,54.0,46.0,30.07,NNW,334,1.0,2.0,73,0.00,,,0.00,,2013-05-13 12:01:00,
2013-05-13 05:11:00,54.0,46.0,30.07,NNW,334,1.0,2.0,73,0.00,,,0.00,,2013-05-13 12:11:00,
2013-05-13 05:21:00,53.0,45.0,30.07,NNW,334,1.0,2.0,73,0.00,,,0.00,,2013-05-13 12:21:00,
2013-05-13 05:32:00,54.0,46.0,30.07,NNW,334,0.0,1.0,73,0.00,,,0.00,,2013-05-13 12:32:00,
2013-05-13 05:41:00,54.0,46.0,30.07,NNW,334,0.0,1.0,73,0.00,,,0.00,,2013-05-13 12:41:00,
2013-05-13 05:51:00,54.0,46.0,30.07,NNW,334,0.0,2.0,73,0.00,,,0.00,,2013-05-13 12:51:00,
2013-05-13 06:01:00,54.0,46.0,30.07,NNW,334,0.0,1.0,73,0.00,,,0.00,,2013-05-13 13:01:00,
2013-05-13 06:11:00,54.0,46.0,30.07,NNW,334,0.0,1.0,73,0.00,,,0.00,,2013-05-13 13:11:00,
2013-05-13 06:21:00,53.0,45.0,30.08,NNW,334,0.0,1.0,74,0.00,,,0.00,,2013-05-13 13:21:00,
2013-05-13 06:31:00,53.0,45.0,30.08,NNW,334,0.0,1.0,75,0.00,,,0.00,,2013-05-13 13:31:00,
2013-05-13 06:41:00,53.0,45.0,30.08,NNW,334,0.0,1.0,75,0.00,,,0.00,,2013-05-13 13:41:00,
2013-05-13 06:52:00,53.0,46.0,30.09,NNW,334,0.0,1.0,76,0.00,,,0.00,,2013-05-13 13:52:00,
2013-05-13 07:01:00,53.0,46.0,30.09,NNW,334,1.0,1.0,76,0.00,,,0.00,,2013-05-13 14:01:00,
2013-05-13 07:11:00,53.0,46.0,30.09,NNW,334,1.0,1.0,76,0.00,,,0.00,,2013-05-13 14:11:00,
2013-05-13 07:22:00,53.0,46.0,30.09,NNW,334,1.0,1.0,76,0.00,,,0.00,,2013-05-13 14:22:00,
2013-05-13 07:31:00,54.0,47.0,30.10,NNW,334,0.0,2.0,77,0.00,,,0.00,,2013-05-13 14:31:00,
2013-05-13 07:41:00,54.0,47.0,30.10,NNW,334,0.0,2.0,77,0.00,,,0.00,,2013-05-13 14:41:00,
2013-05-13 07:51:00,55.0,48.0,30.10,NNW,332,1.0,2.0,77,0.00,,,0.00,,2013-05-13 14:51:00,
2013-05-13 08:01:00,58.0,48.0,30.10,West,270,1.0,3.0,70,0.00,,,0.00,,2013-05-13 15:01:00,
2013-05-13 08:11:00,58.0,48.0,30.10,West,270,1.0,3.0,70,0.00,,,0.00,,2013-05-13 15:11:00,
2013-05-13 08:21:00,59.0,48.0,30.11,West,276,1.0,2.0,68,0.00,,,0.00,,2013-05-13 15:21:00,
2013-05-13 08:31:00,59.0,48.0,30.11,West,276,1.0,2.0,68,0.00,,,0.00,,2013-05-13 15:31:00,
2013-05-13 08:42:00,59.0,48.0,30.11,West,276,1.0,2.0,68,0.00,,,0.00,,2013-05-13 15:42:00,
2013-05-13 08:52:00,59.0,48.0,30.11,West,276,1.0,2.0,68,0.00,,,0.00,,2013-05-13 15:52:00,
2013-05-13 09:03:00,61.0,50.0,30.11,WSW,237,1.0,3.0,66,0.00,,,0.00,,2013-05-13 16:03:00,
2013-05-13 09:11:00,61.0,50.0,30.11,WSW,237,1.0,3.0,66,0.00,,,0.00,,2013-05-13 16:11:00,
2013-05-13 09:21:00,63.0,50.0,30.11,SSW,211,2.0,3.0,63,0.00,,,0.00,,2013-05-13 16:21:00,
2013-05-13 09:33:00,64.0,51.0,30.12,WSW,242,2.0,3.0,63,0.00,,,0.00,,2013-05-13 16:33:00,
2013-05-13 09:42:00,64.0,51.0,30.12,WSW,242,2.0,3.0,63,0.00,,,0.00,,2013-05-13 16:42:00,
2013-05-13 09:52:00,64.0,51.0,30.12,WSW,242,2.0,3.0,63,0.00,,,0.00,,2013-05-13 16:52:00,
2013-05-13 10:02:00,67.0,51.0,30.11,West,277,2.0,6.0,56,0.00,,,0.00,,2013-05-13 17:02:00,
2013-05-13 10:12:00,67.0,51.0,30.11,West,277,2.0,6.0,56,0.00,,,0.00,,2013-05-13 17:12:00,
2013-05-13 10:21:00,68.0,51.0,30.12,WNW,286,2.0,4.0,55,0.00,,,0.00,,2013-05-13 17:21:00,
2013-05-13 10:32:00,68.0,51.0,30.12,WNW,286,2.0,4.0,55,0.00,,,0.00,,2013-05-13 17:32:00,
2013-05-13 10:41:00,68.0,51.0,30.12,WNW,286,2.0,4.0,55,0.00,,,0.00,,2013-05-13 17:41:00,
2013-05-13 10:54:00,70.0,52.0,30.12,SSW,200,2.0,4.0,52,0.00,,,0.00,,2013-05-13 17:54:00,
2013-05-13 11:03:00,71.0,51.0,30.12,WSW,239,3.0,7.0,50,0.00,,,0.00,,2013-05-13 18:03:00,
2013-05-13 11:12:00,71.0,51.0,30.12,WSW,239,3.0,7.0,50,0.00,,,0.00,,2013-05-13 18:12:00,
2013-05-13 11:22:00,72.0,53.0,30.13,WSW,252,2.0,7.0,52,0.00,,,0.00,,2013-05-13 18:22:00,
2013-05-13 11:32:00,72.0,52.0,30.13,West,259,2.0,6.0,50,0.00,,,0.00,,2013-05-13 18:32:00,
2013-05-13 11:42:00,73.0,54.0,30.13,West,281,3.0,7.0,51,0.00,,,0.00,,2013-05-13 18:42:00,
2013-05-13 11:51:00,73.0,54.0,30.13,West,281,3.0,7.0,51,0.00,,,0.00,,2013-05-13 18:51:00,
2013-05-13 12:01:00,75.0,55.0,30.13,SW,233,2.0,5.0,49,0.00,,,0.00,,2013-05-13 19:01:00,
2013-05-13 12:11:00,75.0,55.0,30.13,SW,233,2.0,5.0,49,0.00,,,0.00,,2013-05-13 19:11:00,
2013-05-13 12:21:00,75.0,54.0,30.13,West,277,2.0,6.0,48,0.00,,,0.00,,2013-05-13 19:21:00,
2013-05-13 12:32:00,76.0,54.0,30.13,WSW,257,3.0,5.0,46,0.00,,,0.00,,2013-05-13 19:32:00,
2013-05-13 12:43:00,76.0,54.0,30.13,WSW,257,3.0,5.0,46,0.00,,,0.00,,2013-05-13 19:43:00,
2013-05-13 12:52:00,78.0,55.0,30.12,WSW,240,1.0,4.0,45,0.00,,,0.00,,2013-05-13 19:52:00,
2013-05-13 13:01:00,78.0,55.0,30.12,WNW,295,2.0,5.0,45,0.00,,,0.00,,2013-05-13 20:01:00,
2013-05-13 13:11:00,78.0,55.0,30.12,WNW,295,2.0,5.0,45,0.00,,,0.00,,2013-05-13 20:11:00,
2013-05-13 13:23:00,79.0,56.0,30.11,West,269,2.0,6.0,45,0.00,,,0.00,,2013-05-13 20:23:00,
2013-05-13 13:33:00,80.0,56.0,30.11,NW,304,2.0,7.0,44,0.00,,,0.00,,2013-05-13 20:33:00,
2013-05-13 13:44:00,80.0,56.0,30.11,NW,304,2.0,7.0,44,0.00,,,0.00,,2013-05-13 20:44:00,
2013-05-13 13:53:00,81.0,57.0,30.10,West,281,2.0,4.0,44,0.00,,,0.00,,2013-05-13 20:53:00,
2013-05-13 14:02:00,82.0,57.0,30.10,WSW,246,2.0,6.0,42,0.00,,,0.00,,2013-05-13 21:02:00,
2013-05-13 14:14:00,82.0,57.0,30.10,WSW,246,2.0,6.0,42,0.00,,,0.00,,2013-05-13 21:14:00,
2013-05-13 14:23:00,82.0,56.0,30.10,West,267,4.0,7.0,41,0.00,,,0.00,,2013-05-13 21:23:00,
2013-05-13 14:33:00,82.0,57.0,30.10,SSW,194,2.0,6.0,42,0.00,,,0.00,,2013-05-13 21:33:00,
2013-05-13 14:43:00,82.0,57.0,30.10,SSW,194,2.0,6.0,42,0.00,,,0.00,,2013-05-13 21:43:00,
2013-05-13 14:53:00,82.0,57.0,30.09,West,267,2.0,4.0,42,0.00,,,0.00,,2013-05-13 21:53:00,
2013-05-13 15:02:00,83.0,59.0,30.09,SSW,194,1.0,6.0,44,0.00,,,0.00,,2013-05-13 22:02:00,
2013-05-13 15:12:00,83.0,59.0,30.09,SSW,194,1.0,6.0,44,0.00,,,0.00,,2013-05-13 22:12:00,
2013-05-13 15:22:00,84.0,58.0,30.08,WNW,298,2.0,7.0,41,0.00,,,0.00,,2013-05-13 22:22:00,
2013-05-13 15:32:00,84.0,58.0,30.08,WNW,290,2.0,9.0,42,0.00,,,0.00,,2013-05-13 22:32:00,
2013-05-13 15:42:00,83.0,59.0,30.07,SW,234,2.0,8.0,44,0.00,,,0.00,,2013-05-13 22:42:00,
2013-05-13 15:52:00,83.0,59.0,30.07,SW,234,2.0,8.0,44,0.00,,,0.00,,2013-05-13 22:52:00,
2013-05-13 16:01:00,84.0,60.0,30.06,WSW,237,2.0,7.0,44,0.00,,,0.00,,2013-05-13 23:01:00,
2013-05-13 16:12:00,84.0,60.0,30.06,WSW,237,2.0,7.0,44,0.00,,,0.00,,2013-05-13 23:12:00,
2013-05-13 16:23:00,84.0,58.0,30.06,SW,230,2.0,6.0,42,0.00,,,0.00,,2013-05-13 23:23:00,
2013-05-13 16:33:00,83.0,59.0,30.05,West,277,3.0,6.0,44,0.00,,,0.00,,2013-05-13 23:33:00,
2013-05-13 16:42:00,83.0,59.0,30.05,West,277,3.0,6.0,44,0.00,,,0.00,,2013-05-13 23:42:00,
2013-05-13 16:53:00,83.0,59.0,30.04,WNW,301,2.0,8.0,45,0.00,,,0.00,,2013-05-13 23:53:00,
2013-05-13 17:02:00,83.0,59.0,30.04,WSW,254,2.0,4.0,45,0.00,,,0.00,,2013-05-14 00:02:00,
2013-05-13 17:12:00,83.0,59.0,30.04,WSW,254,2.0,4.0,45,0.00,,,0.00,,2013-05-14 00:12:00,
2013-05-13 17:22:00,82.0,59.0,30.03,SW,221,2.0,8.0,46,0.00,,,0.00,,2013-05-14 00:22:00,
2013-05-13 17:31:00,82.0,59.0,30.03,WNW,302,2.0,5.0,46,0.00,,,0.00,,2013-05-14 00:31:00,
2013-05-13 17:41:00,82.0,59.0,30.03,WNW,302,2.0,5.0,46,0.00,,,0.00,,2013-05-14 00:41:00,
2013-05-13 17:51:00,82.0,59.0,30.03,WNW,297,2.0,5.0,46,0.00,,,0.00,,2013-05-14 00:51:00,
2013-05-13 18:01:00,83.0,59.0,30.02,WNW,292,1.0,5.0,44,0.00,,,0.00,,2013-05-14 01:01:00,
2013-05-13 18:11:00,83.0,59.0,30.02,WNW,292,1.0,5.0,44,0.00,,,0.00,,2013-05-14 01:11:00,
2013-05-13 18:21:00,82.0,55.0,30.02,WNW,284,2.0,4.0,39,0.00,,,0.00,,2013-05-14 01:21:00,
2013-05-13 18:31:00,80.0,53.0,30.02,SSW,209,2.0,5.0,40,0.00,,,0.00,,2013-05-14 01:31:00,
2013-05-13 18:43:00,80.0,53.0,30.02,SSW,209,2.0,5.0,40,0.00,,,0.00,,2013-05-14 01:43:00,
2013-05-13 18:52:00,80.0,53.0,30.02,SSW,209,2.0,5.0,40,0.00,,,0.00,,2013-05-14 01:52:00,
2013-05-13 19:02:00,77.0,52.0,30.01,WNW,298,2.0,4.0,42,0.00,,,0.00,,2013-05-14 02:02:00,
2013-05-13 19:11:00,77.0,52.0,30.01,WNW,298,2.0,4.0,42,0.00,,,0.00,,2013-05-14 02:11:00,
2013-05-13 19:21:00,75.0,52.0,30.01,NNW,346,1.0,4.0,44,0.00,,,0.00,,2013-05-14 02:21:00,
2013-05-13 19:31:00,73.0,50.0,30.01,West,277,2.0,6.0,45,0.00,,,0.00,,2013-05-14 02:31:00,
2013-05-13 19:42:00,73.0,50.0,30.01,West,277,2.0,6.0,45,0.00,,,0.00,,2013-05-14 02:42:00,
2013-05-13 19:51:00,72.0,50.0,30.01,South,185,2.0,5.0,46,0.00,,,0.00,,2013-05-14 02:51:00,
2013-05-13 20:01:00,70.0,49.0,30.01,SW,229,1.0,5.0,47,0.00,,,0.00,,2013-05-14 03:01:00,
2013-05-13 20:11:00,70.0,49.0,30.01,SW,229,1.0,5.0,47,0.00,,,0.00,,2013-05-14 03:11:00,
2013-05-13 20:21:00,69.0,48.0,30.01,WNW,301,2.0,7.0,48,0.00,,,0.00,,2013-05-14 03:21:00,
2013-05-13 20:32:00,68.0,48.0,30.01,WNW,294,1.0,4.0,48,0.00,,,0.00,,2013-05-14 03:32:00,
2013-05-13 20:42:00,68.0,48.0,30.01,WNW,294,1.0,4.0,48,0.00,,,0.00,,2013-05-14 03:42:00,
2013-05-13 20:52:00,67.0,47.0,30.01,WNW,288,2.0,5.0,49,0.00,,,0.00,,2013-05-14 03:52:00,
2013-05-13 21:02:00,67.0,48.0,30.01,WNW,293,1.0,7.0,50,0.00,,,0.00,,2013-05-14 04:02:00,
2013-05-13 21:12:00,67.0,48.0,30.01,WNW,293,1.0,7.0,50,0.00,,,0.00,,2013-05-14 04:12:00,
2013-05-13 21:22:00,66.0,47.0,30.01,West,280,0.0,3.0,51,0.00,,,0.00,,2013-05-14 04:22:00,
2013-05-13 21:32:00,65.0,47.0,30.01,NW,315,1.0,3.0,52,0.00,,,0.00,,2013-05-14 04:32:00,
2013-05-13 21:42:00,65.0,47.0,30.01,NW,315,1.0,3.0,52,0.00,,,0.00,,2013-05-14 04:42:00,
2013-05-13 21:52:00,64.0,47.0,30.01,West,277,0.0,2.0,54,0.00,,,0.00,,2013-05-14 04:52:00,
2013-05-13 22:01:00,63.0,47.0,30.01,West,277,1.0,2.0,56,0.00,,,0.00,,2013-05-14 05:01:00,
2013-05-13 22:12:00,63.0,47.0,30.01,West,277,1.0,2.0,56,0.00,,,0.00,,2013-05-14 05:12:00,
2013-05-13 22:21:00,63.0,48.0,30.02,NNW,345,0.0,2.0,57,0.00,,,0.00,,2013-05-14 05:21:00,
2013-05-13 22:32:00,62.0,47.0,30.02,NNW,345,0.0,1.0,59,0.00,,,0.00,,2013-05-14 05:32:00,
2013-05-13 22:42:00,62.0,47.0,30.02,NNW,345,0.0,1.0,59,0.00,,,0.00,,2013-05-14 05:42:00,
2013-05-13 22:52:00,61.0,47.0,30.01,SSE,154,0.0,2.0,60,0.00,,,0.00,,2013-05-14 05:52:00,
2013-05-13 23:01:00,62.0,48.0,30.01,WSW,254,0.0,1.0,60,0.00,,,0.00,,2013-05-14 06:01:00,
2013-05-13 23:12:00,62.0,48.0,30.01,WSW,254,0.0,1.0,60,0.00,,,0.00,,2013-05-14 06:12:00,
2013-05-13 23:21:00,61.0,47.0,30.01,WSW,254,327.0,327.0,61,0.00,,,0.00,,2013-05-14 06:21:00,
2013-05-13 23:32:00,61.0,48.0,30.01,SSE,155,1.0,2.0,62,0.00,,,0.00,,2013-05-14 06:32:00,
2013-05-13 23:42:00,61.0,48.0,30.01,SSE,155,1.0,2.0,62,0.00,,,0.00,,2013-05-14 06:42:00,
2013-05-13 23:51:00,60.0,47.0,30.00,SSE,148,1.0,2.0,63,0.00,,,0.00,,2013-05-14 06:51:00,